This is the latest recevied weather packets stored in our database for station/object EA1IWF-10. If no packets are shown the sender has not sent any weather packets the latest 10 day(s).
| Time | Temp. | Humidity | Pressure | Rain* | Wind** | Luminosity | Snow |
|---|---|---|---|---|---|---|---|
| 1788610274 | 36.67° C | 27% | 1025.1 hPa | - | - | - | - |
| 1788607210 | 35.56° C | 28% | 1025.3 hPa | - | - | - | - |
| 1788558672 | 31.11° C | 28% | 1024.5 hPa | - | - | - | - |
| 1788557771 | 31.67° C | 27% | 1024.6 hPa | - | - | - | - |
| 1788556870 | 31.67° C | 26% | 1024.5 hPa | - | - | - | - |
| 1788555969 | 32.22° C | 26% | 1024.7 hPa | - | - | - | - |
| 1788555068 | 32.22° C | 25% | 1025 hPa | - | - | - | - |
| 1788554168 | 32.78° C | 24% | 1025.1 hPa | - | - | - | - |
| 1788553267 | 32.78° C | 24% | 1025 hPa | - | - | - | - |
| 1788552365 | 33.33° C | 24% | 1025 hPa | - | - | - | - |
| 1788551464 | 33.33° C | 23% | 1024.9 hPa | - | - | - | - |
| 1788550564 | 33.89° C | 23% | 1024.6 hPa | - | - | - | - |
| 1788549663 | 33.89° C | 23% | 1024.7 hPa | - | - | - | - |
| 1788548762 | 34.44° C | 22% | 1024.4 hPa | - | - | - | - |
| 1788547861 | 35° C | 21% | 1024.2 hPa | - | - | - | - |
| 1788546960 | 35.56° C | 20% | 1024.1 hPa | - | - | - | - |
| 1788546060 | 35.56° C | 20% | 1024.1 hPa | - | - | - | - |
| 1788545159 | 36.11° C | 20% | 1024.1 hPa | - | - | - | - |
| 1788544258 | 36.67° C | 19% | 1024.1 hPa | - | - | - | - |
| 1788543357 | 36.67° C | 18% | 1024.2 hPa | - | - | - | - |
| 1788542456 | 37.78° C | 18% | 1024.1 hPa | - | - | - | - |
| 1788541555 | 38.33° C | 17% | 1024.1 hPa | - | - | - | - |
| 1788540655 | 39.44° C | 16% | 1024.1 hPa | - | - | - | - |
| 1788539777 | 42.22° C | 15% | 1024.2 hPa | - | - | - | - |
| 1788538853 | 40° C | 15% | 1024.3 hPa | - | - | - | - |
* Rain since midnight (hover to see other rain measurements)
** Current wind speed in m/s (hover to see current wind gust speed)